User: anonymous   Login
Location: Unspecified
(0.0000°N, 0.0000°E)
Time: 08:19:14
(UTC+00:00)
Language:

Orbcomm F1 (FM01) - Orbit

View from above orbital plane
View from above orbital plane
View from above satellite
View from above satellite

Ground track
Ground track

The orbit data is extracted from the following two-line orbital elements,

1 23545U 95017A   18267.62822305 +.00000369 +00000-0 +71773-4 0  9990
2 23545 069.9690 296.8711 0006983 333.5386 026.5401 14.71154271250155
Epoch (UTC): 24 September 2018 15:04:38
Eccentricity: 0.0006983
inclination: 69.9690°
perigee height: 652 km
apogee height: 662 km
right ascension of ascending node: 296.8711°
argument of perigee: 333.5386°
revolutions per day: 14.71154271
mean anomaly at epoch: 26.5401°
orbit number at epoch: 25015

The dashed part of the orbit path shows where the satellite is in the earth's shadow,  

DLR